When you browse on this site, cookies collect data to enhance your experience and personalize the content and advertising you see.
Visit our Privacy Policy to learn more. By continuing to use the site, you agree to this use of cookies and data.
  • Em Portugal
  • Lista de países
  • Para 7 dias
  • Temperatura da água
  • Mapas de satélite
  • Mapa do tempo
  • Widgets de tempo
  • user-avatar
    Iniciar Sessão

    Previsão horária em Ayalizimahi

    Hoje, 27 Junho, Quinta-feira

    Tempo Temperatura Precipitação Vento Pressão Humidade
    00:00 +20°C° 0.2 mm 1 m/s 671 mmHg 75%
    01:00 +19°C° 0.2 mm 1 m/s 670 mmHg 75%
    02:00 +19°C° 0.2 mm 1 m/s 670 mmHg 75%
    03:00 +18°C° 0.2 mm 1 m/s 670 mmHg 76%
    04:00 +19°C° 0 mm 1 m/s 670 mmHg 73%
    05:00 +20°C° 0 mm 1 m/s 670 mmHg 71%
    06:00 +19°C° 0 mm 0 m/s 670 mmHg 69%
    07:00 +22°C° 0.1 mm 1 m/s 671 mmHg 66%
    08:00 +23°C° 0.1 mm 2 m/s 671 mmHg 63%
    09:00 +24°C° 0.1 mm 2 m/s 671 mmHg 61%
    10:00 +24°C° 0.8 mm 3 m/s 671 mmHg 63%
    11:00 +24°C° 0.8 mm 3 m/s 670 mmHg 66%
    12:00 +22°C° 0.8 mm 3 m/s 670 mmHg 68%
    13:00 +24°C° 0.4 mm 3 m/s 670 mmHg 65%
    14:00 +24°C° 0.4 mm 3 m/s 670 mmHg 62%
    15:00 +25°C° 0.4 mm 3 m/s 669 mmHg 59%
    16:00 +24°C° 0.1 mm 3 m/s 669 mmHg 63%
    17:00 +24°C° 0.1 mm 2 m/s 668 mmHg 66%
    18:00 +23°C° 0.1 mm 2 m/s 668 mmHg 69%
    19:00 +21°C° 0 mm 2 m/s 668 mmHg 72%
    20:00 +20°C° 0 mm 1 m/s 667 mmHg 76%
    21:00 +19°C° 0 mm 1 m/s 667 mmHg 79%
    22:00 +19°C° 0 mm 1 m/s 667 mmHg 77%
    23:00 +18°C° 0 mm 2 m/s 666 mmHg 74%

    Amanhã, 28 Junho, Sexta-feira

    Tempo Temperatura Precipitação Vento Pressão Humidade
    00:00 +18°C° 0 mm 2 m/s 666 mmHg 72%
    01:00 +17°C° 0 mm 2 m/s 666 mmHg 71%
    02:00 +17°C° 0 mm 2 m/s 666 mmHg 69%
    03:00 +17°C° 0 mm 2 m/s 665 mmHg 68%
    04:00 +18°C° 0 mm 2 m/s 665 mmHg 67%
    05:00 +19°C° 0 mm 2 m/s 665 mmHg 65%
    06:00 +20°C° 0 mm 2 m/s 665 mmHg 64%
    07:00 +21°C° 0 mm 2 m/s 666 mmHg 59%
    08:00 +24°C° 0 mm 2 m/s 666 mmHg 54%
    09:00 +26°C° 0 mm 3 m/s 666 mmHg 50%
    10:00 +26°C° 0 mm 3 m/s 666 mmHg 49%
    11:00 +27°C° 0 mm 3 m/s 665 mmHg 48%
    12:00 +28°C° 0 mm 4 m/s 665 mmHg 47%
    13:00 +27°C° 0.2 mm 3 m/s 665 mmHg 48%
    14:00 +27°C° 0.2 mm 3 m/s 664 mmHg 49%
    15:00 +26°C° 0.2 mm 3 m/s 664 mmHg 51%
    16:00 +26°C° 0.1 mm 3 m/s 664 mmHg 54%
    17:00 +25°C° 0.1 mm 2 m/s 663 mmHg 57%
    18:00 +24°C° 0.1 mm 2 m/s 663 mmHg 60%
    19:00 +23°C° 0 mm 2 m/s 663 mmHg 64%
    20:00 +22°C° 0 mm 1 m/s 662 mmHg 68%
    21:00 +21°C° 0 mm 1 m/s 662 mmHg 72%
    22:00 +21°C° 0.4 mm 1 m/s 662 mmHg 73%
    23:00 +20°C° 0.4 mm 1 m/s 662 mmHg 74%

    Depois de amanhã, 29 Junho, Sábado

    Tempo Temperatura Precipitação Vento Pressão Humidade
    00:00 +19°C° 0.4 mm 2 m/s 662 mmHg 75%
    01:00 +19°C° 0.5 mm 2 m/s 662 mmHg 78%
    02:00 +18°C° 0.5 mm 2 m/s 662 mmHg 81%
    03:00 +18°C° 0.5 mm 2 m/s 662 mmHg 84%
    04:00 +19°C° 0.2 mm 1 m/s 662 mmHg 84%
    05:00 +19°C° 0.2 mm 1 m/s 662 mmHg 84%
    06:00 +20°C° 0.2 mm 1 m/s 663 mmHg 84%
    07:00 +20°C° 0.2 mm 2 m/s 663 mmHg 80%
    08:00 +21°C° 0.2 mm 2 m/s 663 mmHg 77%
    09:00 +22°C° 0.2 mm 3 m/s 663 mmHg 73%
    10:00 +22°C° 0.6 mm 3 m/s 663 mmHg 74%
    11:00 +22°C° 0.6 mm 3 m/s 663 mmHg 74%
    12:00 +22°C° 0.6 mm 3 m/s 663 mmHg 75%
    13:00 +21°C° 0.9 mm 3 m/s 663 mmHg 80%
    14:00 +20°C° 0.9 mm 2 m/s 663 mmHg 85%
    15:00 +20°C° 0.9 mm 1 m/s 662 mmHg 90%
    16:00 +18°C° 2.1 mm 2 m/s 662 mmHg 92%
    17:00 +18°C° 2.1 mm 2 m/s 662 mmHg 93%
    18:00 +18°C° 2.1 mm 2 m/s 662 mmHg 95%
    19:00 +17°C° 0.8 mm 2 m/s 662 mmHg 94%
    20:00 +17°C° 0.8 mm 2 m/s 663 mmHg 94%
    21:00 +17°C° 0.8 mm 2 m/s 663 mmHg 93%
    22:00 +16°C° 2.3 mm 3 m/s 663 mmHg 94%
    23:00 +15°C° 2.3 mm 4 m/s 663 mmHg 95%

    30 Junho, Domingo

    Tempo Temperatura Precipitação Vento Pressão Humidade
    00:00 +14°C° 2.3 mm 5 m/s 663 mmHg 95%
    01:00 +14°C° 2.4 mm 4 m/s 663 mmHg 94%
    02:00 +13°C° 2.4 mm 4 m/s 663 mmHg 94%
    03:00 +13°C° 2.4 mm 4 m/s 663 mmHg 93%
    04:00 +13°C° 0.1 mm 3 m/s 664 mmHg 91%
    05:00 +13°C° 0.1 mm 3 m/s 664 mmHg 90%
    06:00 +14°C° 0.1 mm 2 m/s 664 mmHg 88%
    07:00 +14°C° 0.6 mm 2 m/s 664 mmHg 86%
    08:00 +14°C° 0.6 mm 2 m/s 664 mmHg 84%
    09:00 +14°C° 0.6 mm 1 m/s 665 mmHg 82%
    10:00 +15°C° 0 mm 2 m/s 665 mmHg 76%
    11:00 +16°C° 0 mm 2 m/s 665 mmHg 70%
    12:00 +17°C° 0 mm 2 m/s 666 mmHg 65%
    13:00 +17°C° 0 mm 3 m/s 665 mmHg 67%
    14:00 +17°C° 0 mm 3 m/s 665 mmHg 68%
    15:00 +17°C° 0 mm 3 m/s 665 mmHg 70%
    16:00 +16°C° 0.3 mm 2 m/s 665 mmHg 73%
    17:00 +16°C° 0.3 mm 2 m/s 665 mmHg 76%
    18:00 +15°C° 0.3 mm 1 m/s 665 mmHg 79%
    19:00 +14°C° 2.2 mm 1 m/s 665 mmHg 84%
    20:00 +14°C° 2.2 mm 1 m/s 665 mmHg 88%
    21:00 +13°C° 2.2 mm 1 m/s 665 mmHg 92%
    22:00 +12°C° 4.1 mm 2 m/s 665 mmHg 93%
    23:00 +11°C° 4.1 mm 3 m/s 665 mmHg 93%

    1 Julho, Segunda-feira

    Tempo Temperatura Precipitação Vento Pressão Humidade
    00:00 +11°C° 4.1 mm 3 m/s 666 mmHg 94%
    01:00 +10°C° 3.1 mm 3 m/s 665 mmHg 94%
    02:00 +8°C° 3.1 mm 4 m/s 665 mmHg 94%
    03:00 +8°C° 3.1 mm 4 m/s 665 mmHg 94%
    04:00 +8°C° 2.7 mm 4 m/s 665 mmHg 93%
    05:00 +9°C° 2.7 mm 3 m/s 666 mmHg 92%
    06:00 +8°C° 2.7 mm 3 m/s 666 mmHg 91%
    07:00 +9°C° 1 mm 2 m/s 666 mmHg 89%
    08:00 +9°C° 1 mm 2 m/s 666 mmHg 88%
    09:00 +10°C° 1 mm 1 m/s 666 mmHg 86%
    10:00 +11°C° 0.3 mm 1 m/s 666 mmHg 84%
    11:00 +11°C° 0.3 mm 1 m/s 667 mmHg 82%
    12:00 +12°C° 0.3 mm 1 m/s 667 mmHg 80%
    13:00 +12°C° 0.2 mm 1 m/s 667 mmHg 78%
    14:00 +13°C° 0.2 mm 1 m/s 667 mmHg 76%
    15:00 +13°C° 0.2 mm 1 m/s 667 mmHg 75%
    16:00 +13°C° 0.1 mm 1 m/s 667 mmHg 76%
    17:00 +13°C° 0.1 mm 1 m/s 667 mmHg 77%
    18:00 +13°C° 0.1 mm 1 m/s 667 mmHg 78%
    19:00 +12°C° 0.4 mm 2 m/s 667 mmHg 80%
    20:00 +12°C° 0.4 mm 2 m/s 667 mmHg 82%
    21:00 +10°C° 0.4 mm 3 m/s 668 mmHg 84%
    22:00 +10°C° 0.6 mm 3 m/s 668 mmHg 84%
    23:00 +10°C° 0.6 mm 3 m/s 668 mmHg 84%

    2 Julho, Terça-feira

    Tempo Temperatura Precipitação Vento Pressão Humidade
    00:00 +10°C° 0.6 mm 3 m/s 668 mmHg 83%
    01:00 +9°C° 0.2 mm 3 m/s 668 mmHg 82%
    02:00 +9°C° 0.2 mm 3 m/s 668 mmHg 81%
    03:00 +8°C° 0.2 mm 2 m/s 668 mmHg 80%
    04:00 +9°C° 0 mm 2 m/s 668 mmHg 77%
    05:00 +10°C° 0 mm 2 m/s 668 mmHg 75%
    06:00 +12°C° 0 mm 2 m/s 669 mmHg 73%
    07:00 +14°C° 0 mm 2 m/s 669 mmHg 64%
    08:00 +15°C° 0 mm 2 m/s 670 mmHg 56%
    09:00 +18°C° 0 mm 1 m/s 670 mmHg 48%
    10:00 +18°C° 0 mm 2 m/s 670 mmHg 47%
    11:00 +19°C° 0 mm 2 m/s 670 mmHg 45%
    12:00 +20°C° 0 mm 2 m/s 670 mmHg 44%
    13:00 +20°C° 0 mm 3 m/s 670 mmHg 47%
    14:00 +20°C° 0 mm 3 m/s 670 mmHg 51%
    15:00 +20°C° 0 mm 3 m/s 670 mmHg 54%
    16:00 +19°C° 0 mm 3 m/s 670 mmHg 57%
    17:00 +19°C° 0 mm 2 m/s 670 mmHg 61%
    18:00 +19°C° 0 mm 2 m/s 670 mmHg 64%
    19:00 +17°C° 0 mm 2 m/s 669 mmHg 67%
    20:00 +16°C° 0 mm 2 m/s 669 mmHg 69%
    21:00 +14°C° 0 mm 2 m/s 669 mmHg 72%
    22:00 +14°C° 0 mm 2 m/s 669 mmHg 70%
    23:00 +14°C° 0 mm 2 m/s 668 mmHg 68%
    Mostrar mais